ATLAS 5 CENTAUR DEB, 52971

Orbit data source: Space-Track

ATLAS 5 CENTAUR DEB, 52971 is space debris in HEO originally from a launch on Wed, 17 Oct 2018 UTC launched from the Air Force Eastern Test Range (AFETR). Debris objects in space refer to the collection of defunct objects orbiting the Earth. Examples of debris include non-operational satellites, rocket bodies, and fragments generated from explosions, collisions, or faulty payload assembly.

Loading next visibility...
Identifier
52971, 2018-079GV
Orbit
HEO
Country
Flag of USUS
Related business
Flag of USUnited Launch Alliance/Lockheed Martin (US)
Manufacturer
ULA Decatur
Mission
Spacecraft
Bus & Motor
Unknown
Mass
Unknown
Launch date (UTC)
2018-10-17 (7 years ago)
Launch vehicle
Unknown
Launch site
Air Force Eastern Test Range (AFETR)
Object type
Payload
Rocket body
Debris
Shape & HBR
Unknown shape, 1.1 m
Radar Cross Section
RCS unknown

Expand to show TLE details & history
Last TLE update: 3 days ago

TLE from 3 days ago
0 ATLAS 5 CENTAUR DEB
1 52971U 18079GV  25347.29099152 -.00000066  00000-0  00000-0 0  9990
2 52971  12.8484  53.6719 4760735 288.2456  26.8134  1.82284153 27479
Epoch: 2025-12-13T06:59Z
TLE epoch observation values (Epoch: 2025-12-13T06:59:01.667Z)
Latitude
0.00006°
Longitude
-133.37251°
Altitude
12,697.502 km
Speed
5.264 km/s
True Right ascension
03h 34m 25s
True Declination
0° 00' 00"
Sunlit
Object was in daylight at epoch
Visualization orbit readout
Latitude
Unknown
Longitude
Unknown
Altitude
Unknown
Speed
Unknown
Apparent Right ascension
Unknown
Apparent Declination
Unknown
Sunlit
N/A
Visualization observer readout
Local Sidereal Time
06:07:39
Azimuth
Unknown
Elevation
Unknown
Doppler factor
Unknown
Orbital elements
Apogee altitude
35,409.067 km
Perigee altitude
8,454.067 km
Semi-major axis
28,309.704 km
Eccentricity
0.47607
Inclination
12.8484°
RAAN
53.6719°
Arg. of periapsis
288.2456°
True anomaly
71.7867°
Mean anomaly
26.8134°
Eccentric anomaly
46.64781°
Mean motion
0.45566 °/min
Orbital period
790.06 mins
BSTAR
0
Loading maneuver chart data...
Computing Atmospheric mass density...

Documentation

Showing up to 5 results
|